User: anonymous   Login
Location: Unspecified
(0.0000°N, 0.0000°E)
Time: 03:47:04
(UTC+00:00)
Language:

CARTOSAT-1 - Orbit

View from above orbital plane
View from above orbital plane
View from above satellite
View from above satellite

Ground track
Ground track

The orbit data is extracted from the following two-line orbital elements,

1 28649U 05017A   17268.86084962  .00000119  00000-0  20932-4 0  9990
2 28649  97.8534 341.6451 0003581  78.5888 281.5717 14.83454098670901
Epoch (UTC): 25 September 2017 20:39:37
Eccentricity: 0.0003581
inclination: 97.8534°
perigee height: 616 km
apogee height: 621 km
right ascension of ascending node: 341.6451°
argument of perigee: 78.5888°
revolutions per day: 14.83454098
mean anomaly at epoch: 281.5717°
orbit number at epoch: 67090

The dashed part of the orbit path shows where the satellite is in the earth's shadow,  

DLR